sat.trackr.live / text

‹ back to catalog

STARLINK-34726

NORAD 64935 · 2025-158D

PAYLOAD ACTIVE UNKNOWN

§ Identity

Operator
Country
US
Launch date
2025-07-27
Launch site
AFWTR
Launch vehicle
Mass (kg)
RCS (m²)

Purposes: comms

External: N2YO · Heavens-Above · Gunter

§ Orbital elements

Epoch: 2026-09-20T14:38:55.858272Z

Period
93.91 min
Inclination
97.2819°
Eccentricity
0.0002562
Mean motion
15.33444472 rev/d
Perigee alt
463.8 km
Apogee alt
467.3 km
Semi-major
6,843.7 km
B*
3.3434e-4
RAAN
121.9269°
Arg perigee
94.5769°
Mean anomaly
265.5766°
Rev number
6,472

§ Raw data

STARLINK-347261 64935U 25158D   26263.61036873  .00010734  00000+0  33434-3 0  99952 64935  97.2819 121.9269 0002562  94.5769 265.5766 15.33444472 64723

JSON: /api/v1/satellites/64935 · /tle

For live sub-satellite position, see the globe view (requires WebGL).

§ Visibility from observer

Set your observer location to see the next 7 days of passes ≥ 10°. The values pass through the URL so the page stays shareable.

No JS? Fill the form by hand. The geolocation button needs JavaScript.